SL-16 DEB, 22297

Orbit data source: Space-Track

SL-16 DEB, 22297 is space debris in LEO originally from a launch on Fri, 25 Dec 1992 UTC launched from the Tyuratam Missile And Space Complex (TTMTR). Debris objects in space refer to the collection of defunct objects orbiting the Earth. Examples of debris include non-operational satellites, rocket bodies, and fragments generated from explosions, collisions, or faulty payload assembly.

Loading next visibility...
Identifier
22297, 1992-093M
Orbit
LEO
Country
Flag of CISCIS
Related business
Manufacturer
Unknown
Mission
Spacecraft
Bus & Motor
Unknown
Mass
Unknown
Launch date (UTC)
1992-12-25 (33 years ago)
Launch vehicle
Unknown
Launch site
Tyuratam Missile And Space Complex (TTMTR)
Object type
Payload
Rocket body
Debris
Shape & HBR
Unknown shape, 0.1 m
Radar Cross Section
Small (<0.1 m²)

Expand to show TLE details & history
Last TLE update: 6 hours ago

TLE from 6 hours ago
0 SL-16 DEB
1 22297U 92093M   26127.10226367  .00000327  00000-0  21676-3 0  9997
2 22297  70.9473 255.0296 0100585 312.0086  47.2498 14.06321470707615
Epoch: 2026-05-07T02:27Z
TLE epoch observation values (Epoch: 2026-05-07T02:27:15.581Z)
Latitude
-0.00002°
Longitude
-6.73855°
Altitude
825.265 km
Speed
7.466 km/s
True Right ascension
17h 00m 07s
True Declination
0° 00' 00"
Sunlit
Object was in full shadow at epoch
Visualization orbit readout
Latitude
Unknown
Longitude
Unknown
Altitude
Unknown
Speed
Unknown
Apparent Right ascension
Unknown
Apparent Declination
Unknown
Sunlit
N/A
Visualization observer readout
Local Sidereal Time
16:22:09
Azimuth
Unknown
Elevation
Unknown
Doppler factor
Unknown
Orbital elements
Apogee altitude
942.83 km
Perigee altitude
797.021 km
Semi-major axis
7,248.062 km
Eccentricity
0.01006
Inclination
70.9473°
RAAN
255.0296°
Arg. of periapsis
312.0086°
True anomaly
48.10344°
Mean anomaly
47.2498°
Eccentric anomaly
47.67589°
Mean motion
3.51731 °/min
Orbital period
102.35 mins
BSTAR
0.00021676
Loading maneuver chart data...
Computing Atmospheric mass density...
Loading historical data...
Loading historical data...
Loading historical data...
Loading historical data...
Loading historical data...
Loading historical data...
Loading historical data...

Documentation

Showing up to 5 results
|